Location: City of Moscow
(46.7306°N, 116.9989°W)
Time: 17:52:33
(UTC+00:00)

DX 1 - Visible Passes

Search period start: 11 April 2026 00:00
Search period end: 21 April 2026 00:00
Orbit: 593 x 604 km, 98.4° (Epoch: 11 April)

Date Brightness Start Highest point End Pass type
(mag) Time Alt. Az. Time Alt. Az. Time Alt. Az.
11 Apr ? 10:12:01 10° NE 10:15:43 29° E 10:16:31 27° ESE visible
11 Apr ? 11:47:41 10° N 11:51:17 28° WNW 11:53:15 19° WSW visible
12 Apr ? 10:22:29 10° NNE 10:26:25 37° E 10:27:25 32° SE visible
12 Apr ? 11:58:32 10° NNW 12:01:51 23° WNW 12:04:08 15° WSW visible
13 Apr ? 10:33:01 10° NNE 10:37:06 48° E 10:38:18 37° SSE visible
13 Apr ? 12:09:28 10° NNW 12:12:23 19° WNW 12:15:02 11° WSW visible
14 Apr ? 10:43:35 10° NNE 10:47:46 63° ESE 10:49:12 38° SSE visible
14 Apr ? 12:20:29 10° NNW 12:22:55 15° WNW 12:25:20 10° W visible
15 Apr ? 10:54:11 10° NNE 10:58:24 81° ESE 11:00:05 36° S visible
16 Apr ? 09:31:53 10° ENE 09:32:52 11° E 09:33:51 10° ESE visible
16 Apr ? 11:04:50 10° NNE 11:09:02 79° WNW 11:10:58 31° SSW visible
17 Apr ? 09:41:26 10° ENE 09:43:37 14° E 09:45:07 12° ESE visible
17 Apr ? 11:15:30 10° N 11:19:39 61° WNW 11:21:51 26° SW visible
18 Apr ? 09:51:30 10° NE 09:54:22 18° E 09:56:00 14° ESE visible
18 Apr ? 11:26:13 10° N 11:30:15 47° WNW 11:32:43 21° SW visible
19 Apr ? 10:01:46 10° NE 10:05:05 22° E 10:06:52 17° SE visible
19 Apr ? 11:36:57 10° N 11:40:50 37° WNW 11:43:35 17° SW visible
20 Apr ? 10:12:09 10° NE 10:15:47 28° E 10:17:44 20° SE visible
20 Apr ? 11:47:43 10° N 11:51:23 30° WNW 11:54:28 13° WSW visible
